Regional Weather Roundup
Issued by NWS

Home | Current Version | Previous Version | Graphics & Text | Print | Product List | Glossary On
Versions: 1 2 3 4 5 6 7 8 9 10 11 12 13 14 15 16 17 18 19 20 21 22 23 24 25 26 27 28 29 30 31 32 33 34 35 36 37 38 39 40 41 42 43 44 45 46 47 48 49 50
000
ASUS45 KBOU 292307
RWRCO

WEATHER ROUNDUP FOR COLORADO
NATIONAL WEATHER SERVICE DENVER/BOULDER CO
400 PM MST THU JAN 29 2015

NOTE: "FAIR" INDICATES FEW OR NO CLOUDS BELOW 12000 FEET WITH NO
SIGNIFICANT WEATHER AND/OR OBSTRUCTIONS TO VISIBILITY.

COZ001>005-013-030-031-300000-
...NORTHWEST COLORADO...

CITY           SKY/WX    TMP DP  RH WIND       PRES   REMARKS
CRAIG          PTSUNNY   39  32  76 S3        30.31F
HAYDEN         PTSUNNY   37  28  70 SW5       30.31S
MEEKER         PTSUNNY   40  29  64 CALM      30.30S
MOUNT WERNER   NOT AVBL
STEAMBOAT SPGS PTSUNNY   41  25  53 CALM      30.30F
WALDEN         MOSUNNY   36  23  60 CALM      30.35F
$$

COZ006>008-011-300000-
...WEST CENTRAL VALLEYS...

CITY           SKY/WX    TMP DP  RH WIND       PRES   REMARKS
GRAND JUNCTION CLOUDY    51  28  41 S5        30.26F
MONTROSE       CLOUDY    49  26  41 N3        30.30F
EAGLE          SUNNY     48  21  34 CALM      30.31S
RIFLE          PTSUNNY   52  26  36 W5        30.27S
DELTA          CLOUDY    53  27  37 CALM      30.28F
NUCLA          CLOUDY    50  28  43 NW3       30.32S
$$

COZ017>023-064>068-300000-
...SOUTHWEST COLORADO...

CITY           SKY/WX    TMP DP  RH WIND       PRES   REMARKS
DURANGO        CLOUDY    46  29  51 E6        30.34S
CORTEZ         CLOUDY    51  29  42 CALM      30.29R
PAGOSA SPRINGS CLOUDY    44  27  51 CALM      30.38S
TELLURIDE      CLOUDY    40  25  53 SE7       30.35S
WOLF CREEK PAS NOT AVBL
$$

COZ009-010-012-014-032>034-037-058>063-300000-
...CENTRAL COLORADO...

CITY           SKY/WX    TMP DP  RH WIND       PRES   REMARKS
ASPEN          PTSUNNY   42  22  44 N3        30.30S
BUENA VISTA    CLOUDY    34  23  64 SE5       30.43S WCI  30
COPPER MTN     PTSUNNY   30  14  51 S14G22    30.41S WCI  20
BERTHOUD PASS  FAIR      19  14  79 SE18      30.43S WCI   4
COTTONWOOD PAS CLOUDY    32  25  74 SE6       30.43S WCI  26
GUNNISON       CLOUDY    28  16  59 CALM      30.38S
KREMMLING      MOSUNNY   39  27  60 CALM      30.34S
LEADVILLE      PTSUNNY   24  21  88 S16       30.38S WCI  11
MONARCH PASS   CLOUDY    21  19  93 NE6       30.53R WCI  14
SALIDA         CLOUDY    38  23  53 E8        30.50S
SUNLIGHT       PTSUNNY   34  21  60 CALM      30.40S
WILKERSON PASS CLOUDY    23  21  93 SW6       30.45S WCI  16
$$

COZ069>075-300000-
...SAN LUIS VALLEY/SANGRE DE CRISTO MOUNTAINS...

CITY           SKY/WX    TMP DP  RH WIND       PRES   REMARKS
ALAMOSA        CLOUDY    43  26  51 SE14      30.37S
LA VETA PASS   CLOUDY    27  19  74 NE5       30.44S WCI  21
SAGUACHE       PTSUNNY   37  27  65 E5        30.40S
$$

COZ035-036-038>040-300000-
...NORTHERN COLORADO FRONT RANGE...

CITY           SKY/WX    TMP DP  RH WIND       PRES   REMARKS
DENVER INTL AP PTSUNNY   46  24  42 SE14      30.40F
DMNS CITY PARK   N/A     46  25  44 SE6G12    30.39S
AURORA         PTSUNNY   44  26  48 SE10      30.40F
FRONT RANGE AP NOT AVBL
ERIE MUNI ARPT MOSUNNY   48  23  38 S5        30.39F
BOULDER MUN AP MOSUNNY   46  27  46 SE7       30.39F
CENTENNIAL     PTSUNNY   44  26  49 SE13      30.38F
BROOMFIELD     MOSUNNY   46  27  46 S6        30.40F
FORT COLLINS   MOSUNNY   46  25  42 S9        30.41S
LONGMONT       MOSUNNY   50  25  38 S7        30.41F
$$

COZ041-046-047-076>085-087-088-300000-
...PIKES PEAK/PALMER DIVIDE AND SOUTHERN FOOTHILLS...

CITY           SKY/WX    TMP DP  RH WIND       PRES   REMARKS
COLO. SPRINGS  CLOUDY    42  19  39 S15       30.43F
A. F. ACADEMY  PTSUNNY   41  18  39 SE17      30.41F
ELLICOTT       PTSUNNY  N/A N/A N/A S8        30.43F
FALCON         PTSUNNY   39  19  43 S13       30.44S
FORT CARSON    PTSUNNY   44  21  39 S14       30.42S
LIMON          SUNNY     45  21  38 S5        30.43F
MONUMENT HILL  MOSUNNY   36  21  55 S14       30.40F
TRINIDAD       CLOUDY    42  22  44 SE7       30.45F
$$

COZ042>045-048>051-090-091-300000-
...NORTHEAST COLORADO...

CITY           SKY/WX    TMP DP  RH WIND       PRES   REMARKS
GREELEY ARPT   MOSUNNY   48  21  34 SE13      30.40S
AKRON          SUNNY     45  17  32 CALM      30.43F
BURLINGTON     SUNNY     48  10  21 N5        30.46R
WRAY           CLEAR     48   7  19 N3        30.45S
STERLING       SUNNY     48  19  32 CALM      30.43S
HOLYOKE        CLEAR     46  14  27 N7        30.45S
FORT MORGAN    SUNNY     47  19  32 S5        30.43S
$$

COZ086-089-092>099-300000-
...SOUTHEAST COLORADO...

CITY           SKY/WX    TMP DP  RH WIND       PRES   REMARKS
PUEBLO         PTSUNNY   49  22  34 SE13      30.43F
LA JUNTA       MOSUNNY   51  22  31 SE5       30.45S
LAMAR          SUNNY     52  19  27 N5        30.44S
SPRINGFIELD      N/A     48  19  31 N9        30.46R
$$



USA.gov is the U.S. government's official web portal to all federal, state and local government web resources and services.